W3GWM Weather Reports


time (UTC)temp
C
wind
direction
speed
KPH
gust
KPH
rain 1hr
cm
rain 24hr
cm
rain mn
cm
humidity
%
barometer
mb
20260504044552 2 0 0.0 0.0 0.00 0.00 0.00 62 1012.2
20260504043055 2 0 0.0 0.0 0.00 0.00 0.00 61 1012.0
20260504041553 2 0 0.0 0.0 0.00 0.00 0.00 61 1012.0
20260504040105 3 0 0.0 0.0 0.00 0.00 0.00 60 1012.0
20260504034558 3 0 0.0 0.0 0.00 0.00 0.00 58 1012.0
20260504033123 3 0 0.0 3.2 0.00 0.00 0.00 61 1012.0
20260504031551 3 0 0.0 0.0 0.00 0.00 0.00 59 1012.0
20260504030051 3 0 0.0 0.0 0.00 0.00 0.00 59 1012.0
20260504024550 3 0 0.0 0.0 0.00 0.00 0.00 57 1012.0
20260504023100 4 0 0.0 0.0 0.00 0.00 0.00 54 1012.1
20260504021553 5 0 0.0 0.0 0.00 0.00 0.00 51 1012.1
20260504020057 6 0 0.0 0.0 0.00 0.00 0.00 47 1012.0
20260504014550 7 0 0.0 1.6 0.00 0.00 0.00 44 1012.0
20260504013100 7 0 0.0 0.0 0.00 0.00 0.00 43 1012.0
20260504011551 8 58 0.0 1.6 0.00 0.00 0.00 40 1011.6
20260504010110 10 79 1.6 4.8 0.00 0.00 0.00 33 1011.7
20260504004603 11 0 1.6 6.4 0.00 0.00 0.00 30 1011.6
20260504003051 11 63 1.6 6.4 0.00 0.00 0.00 29 1011.2
20260504001546 12 119 3.2 12.9 0.00 0.00 0.00 28 1011.1
20260504000049 12 101 3.2 11.3 0.00 0.00 0.00 27 1011.1
20260503234551 12 267 3.2 16.1 0.00 0.00 0.00 26 1010.9
20260503233052 12 288 4.8 14.5 0.00 0.00 0.00 27 1010.9
20260503231547 13 77 3.2 9.7 0.00 0.00 0.00 28 1011.0
20260503230058 13 271 3.2 6.4 0.00 0.00 0.00 28 1010.9
20260503224550 12 30 3.2 12.9 0.00 0.00 0.00 29 1010.8
20260503223058 12 35 1.6 12.9 0.00 0.00 0.00 27 1010.8
20260503221551 13 303 4.8 16.1 0.00 0.00 0.00 27 1010.9
20260503220054 13 19 4.8 11.3 0.00 0.00 0.00 27 1010.9
20260503214553 13 64 4.8 12.9 0.00 0.00 0.00 28 1011.0
20260503213103 13 259 6.4 25.7 0.00 0.00 0.00 26 1010.8
20260503211551 13 315 4.8 16.1 0.00 0.00 0.00 26 1011.0
20260503210100 13 66 4.8 17.7 0.00 0.00 0.00 27 1010.8
20260503204553 13 129 9.7 19.3 0.00 0.00 0.00 27 1010.8
20260503203047 13 347 6.4 24.1 0.00 0.00 0.00 26 1011.0
20260503201546 13 328 9.7 38.6 0.00 0.00 0.00 24 1010.8
20260503200054 12 22 9.7 27.4 0.00 0.00 0.00 26 1011.0
20260503194550 12 54 6.4 19.3 0.00 0.00 0.00 24 1011.1
20260503193054 12 28 9.7 22.5 0.00 0.00 0.00 26 1011.3
20260503191550 13 16 6.4 16.1 0.00 0.00 0.00 23 1011.4
20260503190048 12 26 8.0 29.0 0.00 0.00 0.00 23 1011.6
20260503184559 12 295 6.4 14.5 0.00 0.00 0.00 23 1011.7
20260503183111 12 342 6.4 20.9 0.00 0.00 0.00 22 1011.9
20260503181550 12 13 1.6 22.5 0.00 0.00 0.00 25 1012.0
20260503180051 12 53 4.8 29.0 0.00 0.00 0.00 27 1012.2
20260503174550 11 13 11.3 30.6 0.00 0.00 0.00 25 1012.5
20260503173112 10 227 9.7 24.1 0.00 0.00 0.00 28 1012.7
20260503171550 10 70 8.0 22.5 0.00 0.00 0.00 27 1013.0
20260503120106 4 93 1.6 14.5 0.00 0.00 0.00 54 1014.3
20260503081550 2 0 0.0 8.0 0.00 0.00 0.00 59 1013.2
20260503071549 2 47 1.6 6.4 0.00 0.00 0.00 60 1013.0